Location: Asheville, NC
(35.6000°N, 82.5500°W)
Time: 23:34:27
(UTC-04:00)

Vanguard 3 - Pass Details

Date: 10 December 2017
Orbit: 508 x 3264 km, 33.3° (Epoch: 24 April)

Event Time Altitude Azimuth Distance (km) Brightness Sun altitude
Rises 17:29:13 0° 273° (W) 2,746 11.1 -3.0°
Reaches altitude 10° 17:31:10 10° 267° (W) 1,976 10.5 -3.4°
Maximum altitude 17:35:25 49° 192° (SSW) 1,012 8.0 -4.1°
Drops below altitude 10° 17:42:09 10° 119° (ESE) 3,103 9.8 -5.4°
Sets 17:45:57 0° 115° (ESE) 4,528 10.6 -6.1°
